Edwards AFB North Base, CA

1:03 PM PST on November 19, 2019 (GMT -0800)
Edwards AFB North Base

Weather History for K9L2 - May, 2019

Change the Weather History Date:

Monday, May 27, 2019

  Actual Average (WUND) Record (WUND)
Temperature  
Mean Temperature 55 °F -  
Max Temperature 67 °F - - (-1)
Min Temperature 44 °F - - (-1)
Degree Days  
Heating Degree Days 10    
Growing Degree Days 5 (Base 50)    
Moisture  
Dew Point 35 °F    
Average Humidity 50    
Maximum Humidity 76    
Minimum Humidity 28    
Precipitation  
Precipitation 0.00 in - - ()
Sea Level Pressure  
Sea Level Pressure 29.90 in    
Wind  
Wind Speed 12 mph ()    
Max Wind Speed 28 mph    
Max Gust Speed 34 mph    
Visibility 9.0 miles    
Events      
Averages and records for this station are not official NWS values.
T = Trace of Precipitation, MM = Missing Value Source: Averaged Metar Reports

Daily Weather History Graph

Daily Weather History Graph

Search for Another Location

Airport or City:

Astronomy

May. 27, 2019 Rise Set
Actual Time 5:40 AM PDT 7:56 PM PDT
Civil Twilight 5:11 AM PDT 8:25 PM PDT
Nautical Twilight 4:36 AM PDT 9:01 PM PDT
Astronomical Twilight 3:57 AM PDT 9:39 PM PDT
Moon 2:07 AM PDT (5/27) 1:32 PM PDT (5/27)
Length of Visible Light 15h 13m
Length of Day
14h 16m
Last Quarter, 40% of the Moon is Illuminated
May 27
Last Quarter
Jun 3
New
Jun 9
First Quarter
Jun 17
Full
Jun 25
Last Quarter

Hourly Weather History & Observations

Time (PDT) Temp. Windchill Dew Point Humidity Pressure Visibility Wind Dir Wind Speed Gust Speed Precip Events Conditions
12:13 AM 46.4 °F 41.5 °F 39.2 °F 76% 29.87 in 10.0 mi SSW 10.4 mph - N/A   Scattered Clouds
12:58 AM 45.9 °F 39.1 °F 37.6 °F 73% 29.87 in 10.0 mi WSW 16.1 mph 19.6 mph N/A   Scattered Clouds
1:58 AM 44.8 °F 41.6 °F 36.3 °F 72% 29.89 in 10.0 mi SSW 5.8 mph - N/A   Clear
2:58 AM 44.8 °F 39.9 °F 36.3 °F 72% 29.87 in 10.0 mi SW 9.2 mph - N/A   Clear
3:58 AM 45.7 °F 39.5 °F 36.5 °F 70% 29.88 in 10.0 mi SW 13.8 mph 20.7 mph N/A   Clear
4:58 AM 45.1 °F 39.9 °F 35.4 °F 69% 29.87 in 10.0 mi SW 10.4 mph - N/A   Clear
5:58 AM 46.0 °F 39.3 °F 34.0 °F 63% 29.88 in 10.0 mi SW 16.1 mph - N/A   Clear
6:58 AM 48.4 °F - 34.9 °F 60% 29.90 in 10.0 mi WSW 15.0 mph - N/A   Clear
7:58 AM 52.0 °F - 34.3 °F 51% 29.93 in 10.0 mi WSW 17.3 mph 21.9 mph N/A   Clear
8:58 AM 54.5 °F - 34.7 °F 47% 29.93 in 9.0 mi WSW 17.3 mph - N/A   Clear
9:58 AM 57.9 °F - 33.8 °F 40% 29.93 in 10.0 mi WSW 11.5 mph - N/A   Clear
10:58 AM 60.1 °F - 32.7 °F 36% 29.94 in 9.0 mi SW 11.5 mph 21.9 mph N/A   Clear
11:58 AM 62.4 °F - 33.1 °F 33% 29.93 in 8.0 mi WSW 18.4 mph - N/A   Clear
12:18 PM 62.6 °F - 30.2 °F 30% 29.93 in 8.0 mi SSW 15.0 mph - N/A   Clear
12:58 PM 62.2 °F - 34.0 °F 35% 29.92 in 8.0 mi SSW 13.8 mph - N/A   Partly Cloudy
1:58 PM 64.9 °F - 34.0 °F 32% 29.90 in 8.0 mi SW 11.5 mph - N/A   Clear
2:09 PM 66.2 °F - 33.8 °F 30% 29.90 in 8.0 mi SSW 11.5 mph 18.4 mph N/A   Clear
2:58 PM 66.6 °F - 32.5 °F 28% 29.90 in 7.0 mi WSW 17.3 mph 23.0 mph N/A   Clear
3:58 PM 65.8 °F - 36.1 °F 33% 29.88 in 8.0 mi WSW 20.7 mph - N/A   Clear
4:58 PM 64.0 °F - 37.0 °F 37% 29.89 in 7.0 mi SW 27.6 mph 34.5 mph N/A   Clear
5:58 PM 62.4 °F - 37.2 °F 39% 29.90 in 8.0 mi SW 20.7 mph - N/A   Clear
6:58 PM 58.8 °F - 37.4 °F 45% 29.91 in 8.0 mi SW 17.3 mph 24.2 mph N/A   Clear
7:58 PM 56.7 °F - 37.4 °F 49% 29.91 in 8.0 mi WSW 12.7 mph - N/A   Clear
8:58 PM 53.4 °F - 37.8 °F 55% 29.91 in 10.0 mi SSW 4.6 mph - N/A   Clear
9:58 PM 51.6 °F - 37.0 °F 58% 29.92 in 10.0 mi Calm Calm - N/A   Clear
10:58 PM 52.3 °F - 36.1 °F 54% 29.92 in 10.0 mi SSE 6.9 mph - N/A   Clear
11:58 PM 50.9 °F - 36.5 °F 58% 29.91 in 10.0 mi SW 8.1 mph - N/A   Clear